Regional Weather Roundup
Issued by NWS

Home | Current Version | Previous Version | Graphics & Text | Print | Product List | Glossary On
Versions: 1 2 3 4 5 6 7 8 9 10 11 12 13 14 15 16 17 18 19 20 21 22 23 24 25 26 27 28 29 30 31 32 33 34 35 36 37 38 39 40 41 42 43 44 45 46 47 48 49 50
000
ASUS43 KIND 240400
RWRIN

WEATHER ROUNDUP FOR INDIANA
NATIONAL WEATHER SERVICE INDIANAPOLIS IN
1200 AM EDT TUE OCT 24 2017

NOTE: "FAIR" INDICATES FEW OR NO CLOUDS BELOW 12,000 FEET WITH NO
SIGNIFICANT WEATHER AND/OR OBSTRUCTIONS TO VISIBILITY.

* - STATION DOES NOT REPORT WEATHER SUCH AS PRECIPITATION OR FOG.

+ - STATION NOT QUALITY CONTROLLED BY THE NATIONAL WEATHER SERVICE.
    USE DATA WITH CAUTION...ESPECIALLY DEWPOINT AND RELATIVE
    HUMIDITY OBSERVATIONS.

INZ001>003-010>013-019-020-240500-
NORTHWEST INDIANA

CITY           SKY/WX    TMP DP  RH WIND       PRES   REMARKS
MICHIGAN CITY+ CLOUDY    50  50 100 SW8       29.60F
MONTICELLO +   LGT RAIN  50  49  95 SW10      29.66F
RENSSELAER +   LGT RAIN  50  45  81 W9        29.65F

$$

LMZ046-743>745-240500-
SOUTHERN LAKE MICHIGAN

STATION/POSITION TIME  TEMP    WIND        PRES    WAVE
                       AIR SEA DIR/SP/G            HT
                 (UTC) (F)     (DEG/KT/KT) (MB)    (FT)
BURNS HARBOR     0340   53     230/ 12/ 15 1003.4F
MICHIGAN CITY    0330   51     210/ 16/ 18   N/A
5NW MICH CITY    0350   53 57  240/ 17/ 23   N/A     4

$$

INZ004-005-014>016-021>024-240500-
NORTH CENTRAL INDIANA

CITY           SKY/WX    TMP DP  RH WIND       PRES   REMARKS
GOSHEN         CLOUDY    50  46  86 SW9       29.60F
PERU/GRISSOM   CLOUDY    50  50 100 SW13      29.65F
SOUTH BEND     CLOUDY    49  49 100 SW12      29.60F

$$

INZ006>009-017-018-025>027-240500-
NORTHEAST INDIANA

CITY           SKY/WX    TMP DP  RH WIND       PRES   REMARKS
FORT WAYNE     LGT RAIN  50  47  89 W3        29.64F
KENDALLVILLE + RAIN      49  46  90 W8        29.61S

$$

INZ028-029-035-036-043>045-051>053-240500-
WEST CENTRAL INDIANA

CITY           SKY/WX    TMP DP  RH WIND       PRES   REMARKS
GREENCASTLE +  CLOUDY    48  46  93 SW3       29.73F
LAFAYETTE      LGT RAIN  50  49  96 SW8       29.68F
TERRE HAUTE    LGT RAIN  51  49  92 W8        29.74F

$$

INZ030>032-037>040-046>048-054>057-064-065-240500-
CENTRAL INDIANA

CITY           SKY/WX    TMP DP  RH WIND       PRES   REMARKS
GREENWOOD *+   CLOUDY    51  49  92 SW5       29.74S
INDIANAPOLIS   LGT RAIN  50  47  89 SW10      29.73F
-EAGLE CREEK   LGT RAIN  50  47  89 SW9       29.72S
KOKOMO +       CLOUDY    50  49  96 SW12      29.68F
MT COMFORT *+  CLOUDY    48  48 100 SW10      29.72S
SHELBYVILLE    LGT RAIN  48  45  89 S8        29.73F

$$

INZ033-034-041-042-049-050-058-059-240500-
EAST CENTRAL INDIANA

CITY           SKY/WX    TMP DP  RH WIND       PRES   REMARKS
MUNCIE         PTCLDY    50  46  86 SW7       29.68F
RICHMOND +     MOCLDY    45  45 100 W13       29.72S

$$

INZ060-061-067>069-081>083-085>088-240500-
SOUTHWEST INDIANA

CITY           SKY/WX    TMP DP  RH WIND       PRES   REMARKS
EVANSVILLE     RAIN      52  48  86 SW7       29.80R FOG
HUNTINGBURG +  LGT RAIN  51  48  89 CALM      29.79F

$$

INZ062-063-066-070>080-084-089>092-240500-
SOUTH CENTRAL AND SOUTHEAST INDIANA

CITY           SKY/WX    TMP DP  RH WIND       PRES   REMARKS
BLOOMINGTON    LGT RAIN  50  45  83 SW9       29.75F
MADISON *+     CLOUDY    46  45  93 S5        29.79F
SEYMOUR +      CLOUDY    48  46  93 SW7       29.78S

$$





USA.gov is the U.S. government's official web portal to all federal, state and local government web resources and services.